Regional Weather Roundup
Issued by NWS Mobile, AL

Home | Current Version | Previous Version | Text Only | Print | Product List | Glossary On
Versions: 1 2 3 4 5 6 7 8 9 10 11 12 13 14 15 16 17 18 19 20 21 22 23 24 25 26 27 28 29
000
ASUS44 KMOB 261212
RWRMOB
REGIONAL WEATHER ROUNDUP
NATIONAL WEATHER SERVICE MOBILE AL
700 AM CDT TUE JUL 26 2016

NOTE: "FAIR" INDICATES FEW OR NO CLOUDS BELOW 12,000 FEET WITH NO
      SIGNIFICANT WEATHER AND/OR OBSTRUCTIONS TO VISIBILITY.

  * THESE STATIONS ARE PART OF THE UNIVERSITY OF SOUTH ALABAMA
    MESONET AND ARE NOT UNDER NWS OR FAA QUALITY CONTROL.

ALZ061>064-261300-
COASTAL ALABAMA

CITY           SKY/WX    TMP DP  RH WIND       PRES   REMARKS
MOBILE REG APT PTCLDY    78  75  90 E5        29.96R
6HR MIN TEMP:  77; 6HR MAX TEMP:  78; 6HR PCP:  0.02;

BROOKLEY FIELD PTCLDY    80  77  90 E12       29.96S
6HR MIN TEMP:  80; 6HR MAX TEMP:  82; 6HR PCP: TRACE;

USA CAMPUS*    NOT AVBL
DOG RIVER*     NOT AVBL


CITY           SKY/WX    TMP DP  RH WIND       PRES   REMARKS
MOUNT VERNON*  NOT AVBL
SARALAND*      NOT AVBL
BAY MINETTE*   NOT AVBL
LOXLEY*        NOT AVBL
ROBERTSDALE*   NOT AVBL
FAIRHOPE*      NOT AVBL
ELBERTA*       NOT AVBL
FOLEY*         NOT AVBL
GRAND BAY*     NOT AVBL
DAUPHIN ISLND* NOT AVBL
BON SCOUR NWR* NOT AVBL
GULF SHORES    PTSUNNY   79  77  94 CALM      29.95R

$$

ALZ051>060-261300-
INTERIOR SOUTHWEST AND SOUTH CENTRAL ALABAMA

CITY           SKY/WX    TMP DP  RH WIND       PRES   REMARKS
GREENVILLE     SUNNY     76  72  87 E7        30.02
6HR MIN TEMP:  74; 6HR MAX TEMP:  77;

EVERGREEN      SUNNY     76  73  91 E6        30.01R
6HR MIN TEMP:  75; 6HR MAX TEMP:  76;

CASTLEBERRY*   NOT AVBL
ATMORE*        NOT AVBL
DIXIE*         NOT AVBL
ANDALUSIA/OPP  MOSUNNY   80  73  79 E7        30.02R
6HR MIN TEMP:  78; 6HR MAX TEMP:  80;

ANDALUSIA*     NOT AVBL
FLORALA APT    PTSUNNY   74  73  97 E6        30.03R
6HR MIN TEMP:  73; 6HR MAX TEMP:  75;

FLORALA*       NOT AVBL

$$

FLZ001>006-261300-
WESTERN FLORIDA PANHANDLE

CITY           SKY/WX    TMP DP  RH WIND       PRES   REMARKS
PENSACOLA      PTSUNNY   79  76  90 NE6       29.96S
6HR MIN TEMP:  79; 6HR MAX TEMP:  81; 6HR PCP:  0.18;

NAS PENSACOLA  PTSUNNY   84  76  76 S13       29.95R
6HR MIN TEMP:  81; 6HR MAX TEMP:  84; 6HR PCP:  0.10;

MILTON         MOSUNNY   75  75 100 E7        29.98S
6HR MIN TEMP:  75; 6HR MAX TEMP:  77; 6HR PCP: TRACE;

WHTNG S FIELD  MOSUNNY   79  77  94 E9        29.98
6HR MIN TEMP:  78; 6HR MAX TEMP:  81; 6HR PCP:  0.03;



CITY           SKY/WX    TMP DP  RH WIND       PRES   REMARKS
WALNUT HILL*   NOT AVBL
JAY*           NOT AVBL
DUKE FIELD     MOSUNNY   75  73  94 E6        29.98R
CRESTVIEW      LGT RAIN  75  73  93 E6        30.00S
6HR MIN TEMP:  74; 6HR MAX TEMP:  76; 6HR PCP:  0.02;

VALPARAISO     PTSUNNY   77  75  93 NE8       29.97R
6HR MIN TEMP:  77; 6HR MAX TEMP:  82; 6HR PCP:  0.02;

DESTIN         MOSUNNY   85  80  85 SE13      29.97R HX  99
6HR MIN TEMP:  82; 6HR MAX TEMP:  86; 6HR PCP:  0.03;


$$

MSZ076-079-261300-
INTERIOR SOUTHEAST MISSISSIPPI

CITY           SKY/WX    TMP DP  RH WIND       PRES   REMARKS
LEAKESVILLE*   NOT AVBL
AGRICOLA*      NOT AVBL

$$

MARINE OBSERVATIONS

STATION/POSITION TIME  TEMP    WIND        PRES    WAVE
                       AIR SEA DIR/SP/G            HT/PER
                 (UTC) (F)     (DEG/KT/KT) (MB)    (FT/S)
PASCAGOULA       1100   82      40/  5/  6 1013.1F
PETIT BOIS ISLND 1100   83     130/ 11/ 13 1013.9S
GRAND BAY        1000   84     150/ 10     1014.0S
KATRINA CUT      1100   84     150/ 12     1013.9S
CEDAR POINT      1100   84     160/ 10     1013.5R
E DAUPHIN ISLAND 1200   85     150/ 11/ 11 1013.8R
MIDDLE BAY LIGHT 1100   82      90/ 12     1013.9R
USCG MOBILE BAY  1100   79 86   80/  7/  8 1014.7R
STATE DOCKS      1100   78 87              1014.1R
MEAHER PARK      1100   77      70/  4     1013.9R
WEEKS BAY        1000   77                   N/A
FORT MORGAN      1100   84     150/ 12/ 13 1013.2R
12 S ORANGE BCH  1150   85 88  170/ 12/ 14 1014.1R   3/ 6
PENSACOLA BAY    1100   84 88  140/  3/  5 1014.3R
64 S DAUPHIN ISL 1200   82 87  230/ 19/ 25 1013.6R
67 S FORT MORGAN 1130   80     220/ 21     1014.6R

$$

SELECTED LOCATIONS ACROSS THE REGION

CITY           SKY/WX    TMP DP  RH WIND       PRES   REMARKS
NEW ORLEANS    PTCLDY    81  77  88 W3        29.92R THUNDER
GULFPORT       LGT RAIN  78  76  93 NE6       29.92R
PASCAGOULA AP  PTCLDY    78  78 100 E6        29.94R
PASCAGOULA*    NOT AVBL
HATTIESBURG    MOCLDY    76  74  93 N3        29.98R
LAUREL         PTCLDY    73  72  94 N5        30.00R
MERIDIAN       PTCLDY    76  72  87 N3        30.01R
JACKSON        CLEAR     75  71  87 NE6       30.00R
MONTGOMERY     SUNNY     77  72  84 E5        30.04R
TROY           SUNNY     76  73  91 E3        30.05R
KINSTON*       NOT AVBL
GENEVA*        NOT AVBL
ASHFORD*       NOT AVBL
DOTHAN         SUNNY     75  73  93 E6        30.08R
PANAMA CITY    MOSUNNY   77  75  93 E8        29.99R

$$





USA.gov is the U.S. government's official web portal to all federal, state and local government web resources and services.